Location: Newark
(52.8300°N, 8.0000°E)
Time: 00:32:30
(UTC+00:00)

STARLINK-1125 - Pass Details

Date: 01 February 2020
Orbit: 348 x 351 km, 53.0° (Epoch: 23 February)

Event Time Altitude Azimuth Distance (km) Brightness Sun altitude
Rises 17:22:39 0° 282° (WNW) 2,181 7.9 -10.8°
Reaches altitude 10° 17:24:56 10° 267° (W) 1,333 7.1 -11.1°
Maximum altitude 17:27:17 21° 214° (SW) 855 5.2 -11.4°
Drops below altitude 10° 17:29:39 10° 161° (SSE) 1,327 5.5 -11.8°
Enters shadow 17:31:55 - 145° (SE) 2,165 6.4 -12.1°
